2023/10/02 00:00:00,23.9,13.1
2023/10/02 00:10:00,23.9,12.8
2023/10/02 00:20:00,23.9,12.8
2023/10/02 00:30:00,23.9,12.9
2023/10/02 00:40:00,23.9,13.1
2023/10/02 00:50:00,23.9,13.2
2023/10/02 01:00:00,24.0,13.4
2023/10/02 01:10:00,23.9,13.4
2023/10/02 01:20:00,24.0,13.6
2023/10/02 01:30:00,24.0,13.4
2023/10/02 01:40:00,24.0,13.3
2023/10/02 01:50:00,24.0,13.2
2023/10/02 02:00:00,24.0,13.1
2023/10/02 02:10:00,23.9,12.8
2023/10/02 02:20:00,23.9,13.0
2023/10/02 02:30:00,23.8,12.9
2023/10/02 02:40:00,24.0,12.5
2023/10/02 02:50:00,24.0,12.9
2023/10/02 03:00:00,23.9,12.4
2023/10/02 03:10:00,23.9,12.8
2023/10/02 03:20:00,23.9,12.2
2023/10/02 03:30:00,23.8,12.1
2023/10/02 03:40:00,23.9,11.8
2023/10/02 03:50:00,23.9,11.9
2023/10/02 04:00:00,23.9,11.6
2023/10/02 04:10:00,23.8,11.6
2023/10/02 04:20:00,23.8,11.6
2023/10/02 04:30:00,23.8,11.8
2023/10/02 04:40:00,23.8,11.7
2023/10/02 04:50:00,23.9,11.6
2023/10/02 05:00:00,23.8,11.2
2023/10/02 05:10:00,23.8,11.3
2023/10/02 05:20:00,23.8,11.2
2023/10/02 05:30:00,23.7,11.1
2023/10/02 05:40:00,23.7,11.2
2023/10/02 05:50:00,23.7,10.9
2023/10/02 06:00:00,23.7,10.8
2023/10/02 06:10:00,23.7,10.8
2023/10/02 06:20:00,23.7,10.6
2023/10/02 06:30:00,23.7,10.8
2023/10/02 06:40:00,23.7,11.1
2023/10/02 06:50:00,23.8,11.4
2023/10/02 07:00:00,23.7,11.4
2023/10/02 07:10:00,23.8,11.5
2023/10/02 07:20:00,23.8,11.5
2023/10/02 07:30:00,23.8,11.5
2023/10/02 07:40:00,23.8,11.8
2023/10/02 07:50:00,23.8,11.9
2023/10/02 08:00:00,23.8,12.1
2023/10/02 08:10:00,23.9,12.8
2023/10/02 08:20:00,23.9,13.3
2023/10/02 08:30:00,23.9,13.3
2023/10/02 08:40:00,23.9,13.4
2023/10/02 08:50:00,23.9,14.1
2023/10/02 09:00:00,23.9,14.3
2023/10/02 09:10:00,23.9,15.0
2023/10/02 09:20:00,24.4,15.9
2023/10/02 09:30:00,24.6,16.4
2023/10/02 09:40:00,24.6,16.8
2023/10/02 09:50:00,24.4,17.2
2023/10/02 10:00:00,24.0,17.1
2023/10/02 10:10:00,24.1,17.2
2023/10/02 10:20:00,24.2,18.0
2023/10/02 10:30:00,24.3,20.2
2023/10/02 10:40:00,24.2,22.7
2023/10/02 10:50:00,24.0,21.8
2023/10/02 11:00:00,24.1,20.8
2023/10/02 11:10:00,24.2,19.9
2023/10/02 11:20:00,25.6,20.2
2023/10/02 11:30:00,24.1,20.2
2023/10/02 11:40:00,23.8,21.1
2023/10/02 11:50:00,23.8,21.2
2023/10/02 12:00:00,17.9,20.4
2023/10/02 12:10:00,23.7,20.8
2023/10/02 12:20:00,23.2,20.0
2023/10/02 12:30:00,23.8,20.7
2023/10/02 12:40:00,23.5,21.4
2023/10/02 12:50:00,23.4,21.1
2023/10/02 13:00:00,23.1,21.8
2023/10/02 13:10:00,23.5,21.4
2023/10/02 13:20:00,23.7,21.1
2023/10/02 13:30:00,23.6,21.1
2023/10/02 13:40:00,23.6,20.7
2023/10/02 13:50:00,23.8,20.4
2023/10/02 14:00:00,22.9,20.5
2023/10/02 14:10:00, 9.2,20.9
2023/10/02 14:20:00, 6.7,20.4
2023/10/02 14:30:00, 8.5,20.4
2023/10/02 14:40:00, 6.3,20.7
2023/10/02 14:50:00, 0.2,20.6
2023/10/02 15:00:00, 5.4,20.2
2023/10/02 15:10:00, 3.8,20.1
2023/10/02 15:20:00, 6.9,20.0
2023/10/02 15:30:00,10.2,19.9
2023/10/02 15:40:00,20.1,19.8
2023/10/02 15:50:00,22.2,19.3
2023/10/02 16:00:00,23.7,19.2
2023/10/02 16:10:00,23.9,18.2
2023/10/02 16:20:00,24.3,17.1
2023/10/02 16:30:00,24.4,16.2
2023/10/02 16:40:00,24.5,15.6
2023/10/02 16:50:00,24.6,15.5
2023/10/02 17:00:00,24.6,15.1
2023/10/02 17:10:00,24.5,14.8
2023/10/02 17:20:00,24.5,14.4
2023/10/02 17:30:00,24.5,14.1
2023/10/02 17:40:00,24.5,13.8
2023/10/02 17:50:00,24.4,13.5
2023/10/02 18:00:00,24.4,13.2
2023/10/02 18:10:00,24.3,13.1
2023/10/02 18:20:00,24.3,12.6
2023/10/02 18:30:00,24.2,12.2
2023/10/02 18:40:00,24.2,12.1
2023/10/02 18:50:00,24.2,11.9
2023/10/02 19:00:00,24.3,11.6
2023/10/02 19:10:00,24.2,11.6
2023/10/02 19:20:00,24.2,11.4
2023/10/02 19:30:00,24.2,11.1
2023/10/02 19:40:00,24.1,11.1
2023/10/02 19:50:00,24.2,11.0
2023/10/02 20:00:00,24.1,10.9
2023/10/02 20:10:00,24.1,10.8
2023/10/02 20:20:00,24.1,10.7
2023/10/02 20:30:00,24.1,10.2
2023/10/02 20:40:00,24.1,10.7
2023/10/02 20:50:00,24.2,10.5
2023/10/02 21:00:00,24.1,10.5
2023/10/02 21:10:00,24.1,10.0
2023/10/02 21:20:00,24.1,10.5
2023/10/02 21:30:00,24.0,10.2
2023/10/02 21:40:00,23.9,10.3
2023/10/02 21:50:00,23.7,10.1
2023/10/02 22:00:00,24.0,10.1
2023/10/02 22:10:00,24.0, 9.8
2023/10/02 22:20:00,23.9,10.2
2023/10/02 22:30:00,23.8, 9.9
2023/10/02 22:40:00,24.0,10.3
2023/10/02 22:50:00,23.8,10.0
2023/10/02 23:00:00,23.9, 9.6
2023/10/02 23:10:00,23.9, 9.6
2023/10/02 23:20:00,23.9, 9.8
2023/10/02 23:30:00,23.8, 9.7
2023/10/02 23:40:00,23.8, 9.5
2023/10/02 23:50:00,23.9, 9.6
